WZZ2040 EYVI-EPKK

Flight info

Callsign WZZ2040
Flight time 1h 0m
Altitude 36000
Route UPASI DCT TUNGA DCT SUWGI DCT TITUV M985 EVINA M66 KUKAM
Aircraft A321/M-SDE3FGHIRWY/LB1

Departure

Time 2026-05-04 17:29
Airport Vilnius International Airport (EYVI)

Arrival

Time 2026-05-04 18:29
Airport Kraków John Paul II International Airport (EPKK)
Time Latitude Longitude Altitude Speed Heading
2026-05-04 17:00 54.64240 25.28118 636 ft 0 kts
2026-05-04 17:19 54.64228 25.28118 640 ft 4 kts 359°
2026-05-04 17:20 54.64182 25.28136 639 ft 4 kts 342°
2026-05-04 17:20 54.64130 25.28162 638 ft 4 kts 347°
2026-05-04 17:20 54.64125 25.28164 637 ft 1 kts 347°
2026-05-04 17:23 54.64132 25.28161 637 ft 2 kts 350°
2026-05-04 17:23 54.64162 25.28199 647 ft 4 kts 59°
2026-05-04 17:24 54.64177 25.28265 641 ft 7 kts 72°
2026-05-04 17:24 54.64130 25.28346 640 ft 8 kts 128°
2026-05-04 17:25 54.64122 25.28458 642 ft 11 kts 91°
2026-05-04 17:25 54.64125 25.28688 648 ft 8 kts 84°
2026-05-04 17:26 54.64226 25.28834 651 ft 10 kts 21°
2026-05-04 17:26 54.64407 25.28961 656 ft 8 kts 22°
2026-05-04 17:27 54.64505 25.29034 657 ft 8 kts 32°
2026-05-04 17:27 54.64477 25.29206 657 ft 10 kts 118°
2026-05-04 17:28 54.64372 25.29240 656 ft 0 kts 201°
2026-05-04 17:29 54.63600 25.28705 623 ft 130 kts 202°
2026-05-04 17:29 54.60356 25.26432 2118 ft 177 kts 206°
2026-05-04 17:30 54.56476 25.23723 2948 ft 233 kts 205°
2026-05-04 17:31 54.53407 25.21631 4118 ft 238 kts 205°
2026-05-04 17:31 54.50091 25.16236 6006 ft 247 kts 272°
2026-05-04 17:32 54.50852 25.10243 7218 ft 261 kts 285°
2026-05-04 17:33 54.52410 25.01180 9442 ft 267 kts 284°
2026-05-04 17:33 54.52899 24.98078 10146 ft 269 kts 280°
2026-05-04 17:34 54.51893 24.88277 11324 ft 309 kts 251°
2026-05-04 17:34 54.51114 24.84688 11455 ft 330 kts 251°
2026-05-04 17:35 54.48555 24.72926 12585 ft 362 kts 251°
2026-05-04 17:35 54.46780 24.64748 13872 ft 368 kts 251°
2026-05-04 17:35 54.45879 24.60609 14442 ft 371 kts 251°
2026-05-04 17:36 54.44967 24.56427 15022 ft 374 kts 251°
2026-05-04 17:36 54.44054 24.52233 15608 ft 377 kts 251°
2026-05-04 17:36 54.43138 24.48036 16162 ft 380 kts 251°
2026-05-04 17:36 54.42204 24.43763 16738 ft 384 kts 251°
2026-05-04 17:37 54.41257 24.39439 17290 ft 387 kts 251°
2026-05-04 17:37 54.40299 24.35087 17841 ft 390 kts 250°
2026-05-04 17:37 54.39333 24.30715 18333 ft 394 kts 250°
2026-05-04 17:37 54.38370 24.26286 18780 ft 396 kts 252°
2026-05-04 17:38 54.37508 24.21841 19224 ft 399 kts 253°
2026-05-04 17:38 54.36705 24.17274 19669 ft 402 kts 255°
2026-05-04 17:38 54.35927 24.12641 20119 ft 404 kts 255°
2026-05-04 17:38 54.35150 24.07976 20554 ft 407 kts 255°
2026-05-04 17:39 54.33539 23.98582 21400 ft 413 kts 254°
2026-05-04 17:39 54.32715 23.93908 21821 ft 416 kts 254°
2026-05-04 17:39 54.31863 23.89143 22228 ft 418 kts 253°
2026-05-04 17:40 54.31000 23.84341 22647 ft 421 kts 253°
2026-05-04 17:40 54.30145 23.79592 23047 ft 424 kts 253°
2026-05-04 17:40 54.29269 23.74746 23444 ft 427 kts 253°
2026-05-04 17:40 54.28386 23.69877 23782 ft 429 kts 253°
2026-05-04 17:41 54.27500 23.64997 24122 ft 431 kts 253°
2026-05-04 17:41 54.26605 23.60077 24462 ft 433 kts 253°
2026-05-04 17:41 54.26013 23.56815 24694 ft 434 kts 253°
2026-05-04 17:41 54.24808 23.50205 25156 ft 436 kts 253°
2026-05-04 17:42 54.23895 23.45237 25492 ft 438 kts 253°
2026-05-04 17:42 54.23287 23.41939 25725 ft 439 kts 253°
2026-05-04 17:42 54.21722 23.35522 26174 ft 443 kts 243°
2026-05-04 17:42 54.20228 23.30893 26499 ft 445 kts 242°
2026-05-04 17:43 54.19232 23.27813 26711 ft 446 kts 242°
2026-05-04 17:43 54.17735 23.23180 27174 ft 444 kts 242°
2026-05-04 17:43 54.16240 23.18559 27643 ft 442 kts 243°
2026-05-04 17:43 54.14761 23.13984 28097 ft 441 kts 243°
2026-05-04 17:44 54.13274 23.09387 28553 ft 439 kts 243°
2026-05-04 17:44 54.11794 23.04822 29002 ft 438 kts 243°
2026-05-04 17:44 54.10319 23.00284 29462 ft 437 kts 243°
2026-05-04 17:44 54.08841 22.95845 29919 ft 436 kts 239°
2026-05-04 17:45 54.07016 22.91714 30283 ft 438 kts 230°
2026-05-04 17:45 54.04791 22.88135 30636 ft 440 kts 221°
2026-05-04 17:45 54.02246 22.85211 30983 ft 443 kts 214°
2026-05-04 17:45 53.99598 22.82539 31334 ft 442 kts 214°
2026-05-04 17:46 53.96948 22.79867 31674 ft 441 kts 214°
2026-05-04 17:46 53.94305 22.77202 32020 ft 441 kts 214°
2026-05-04 17:46 53.91669 22.74542 32362 ft 440 kts 214°
2026-05-04 17:46 53.89043 22.71884 32704 ft 439 kts 214°
2026-05-04 17:47 53.86439 22.69251 33032 ft 439 kts 214°
2026-05-04 17:47 53.83817 22.66606 33370 ft 438 kts 214°
2026-05-04 17:47 53.81193 22.63967 33711 ft 438 kts 214°
2026-05-04 17:47 53.78574 22.61337 34023 ft 437 kts 214°
2026-05-04 17:48 53.75959 22.58717 34300 ft 437 kts 214°
2026-05-04 17:48 53.73343 22.56105 34550 ft 436 kts 214°
2026-05-04 17:48 53.70733 22.53504 34813 ft 436 kts 214°
2026-05-04 17:48 53.68115 22.50903 35071 ft 436 kts 214°
2026-05-04 17:49 53.65503 22.48312 35327 ft 435 kts 214°
2026-05-04 17:49 53.62890 22.45722 35578 ft 435 kts 214°
2026-05-04 17:49 53.60314 22.43170 35816 ft 435 kts 214°
2026-05-04 17:49 53.57701 22.40579 35879 ft 436 kts 214°
2026-05-04 17:50 53.52476 22.35401 35902 ft 436 kts 213°
2026-05-04 17:50 53.47242 22.30230 35902 ft 435 kts 213°
2026-05-04 17:51 53.42030 22.25101 35902 ft 435 kts 213°
2026-05-04 17:51 53.36791 22.19961 35900 ft 435 kts 213°
2026-05-04 17:52 53.31554 22.14856 35904 ft 436 kts 213°
2026-05-04 17:52 53.26333 22.09780 35910 ft 436 kts 213°
2026-05-04 17:53 53.21083 22.04683 35916 ft 436 kts 213°
2026-05-04 17:53 53.15821 21.99600 35917 ft 436 kts 212°
2026-05-04 17:54 53.10480 21.94842 35920 ft 437 kts 210°
2026-05-04 17:54 53.05083 21.90273 35921 ft 437 kts 210°
2026-05-04 17:55 52.99661 21.85650 35918 ft 437 kts 211°
2026-05-04 17:55 52.94264 21.80977 35918 ft 437 kts 211°
2026-05-04 17:56 52.88889 21.76316 35917 ft 438 kts 211°
2026-05-04 17:56 52.83472 21.71639 35920 ft 438 kts 210°
2026-05-04 17:57 52.78085 21.67033 35926 ft 438 kts 210°
2026-05-04 17:57 52.72659 21.62398 35925 ft 439 kts 210°
2026-05-04 17:58 52.67214 21.57745 35929 ft 439 kts 210°
2026-05-04 17:58 52.61812 21.53136 35929 ft 439 kts 210°
2026-05-04 17:59 52.56375 21.48524 35927 ft 439 kts 210°
2026-05-04 18:00 52.48214 21.41641 35925 ft 439 kts 210°
2026-05-04 18:00 52.42808 21.37096 35927 ft 439 kts 210°
2026-05-04 18:01 52.37347 21.32506 35928 ft 439 kts 210°
2026-05-04 18:01 52.31943 21.27974 35931 ft 439 kts 210°
2026-05-04 18:02 52.23763 21.21141 35931 ft 440 kts 210°
2026-05-04 18:02 52.18299 21.16591 35933 ft 440 kts 210°
2026-05-04 18:03 52.12857 21.12078 35933 ft 441 kts 210°
2026-05-04 18:03 52.07376 21.07537 35935 ft 441 kts 210°
2026-05-04 18:04 52.01906 21.03025 35931 ft 441 kts 210°
2026-05-04 18:05 51.93723 20.96301 35938 ft 441 kts 210°
2026-05-04 18:05 51.88236 20.91817 35942 ft 441 kts 209°
2026-05-04 18:06 51.79997 20.85096 35942 ft 441 kts 209°
2026-05-04 18:06 51.74348 20.81332 35947 ft 445 kts 199°
2026-05-04 18:07 51.71364 20.79939 35768 ft 445 kts 199°
2026-05-04 18:07 51.68391 20.78564 35539 ft 445 kts 199°
2026-05-04 18:07 51.65398 20.77191 35286 ft 445 kts 198°
2026-05-04 18:07 51.62399 20.75825 35033 ft 446 kts 198°
2026-05-04 18:08 51.59454 20.74480 34794 ft 446 kts 199°
2026-05-04 18:08 51.56469 20.73093 34547 ft 447 kts 199°
2026-05-04 18:08 51.53475 20.71699 34303 ft 447 kts 199°
2026-05-04 18:08 51.50476 20.70305 34061 ft 448 kts 199°
2026-05-04 18:09 51.44472 20.67520 33523 ft 449 kts 199°
2026-05-04 18:09 51.38492 20.64748 32979 ft 451 kts 199°
2026-05-04 18:10 51.35436 20.63337 32710 ft 452 kts 199°
2026-05-04 18:10 51.32437 20.61967 32241 ft 455 kts 198°
2026-05-04 18:10 51.29394 20.60596 31537 ft 454 kts 198°
2026-05-04 18:10 51.26361 20.59237 30829 ft 449 kts 198°
2026-05-04 18:11 51.23370 20.57902 30133 ft 442 kts 198°
2026-05-04 18:11 51.20425 20.56593 29296 ft 435 kts 198°
2026-05-04 18:11 51.17559 20.55317 28479 ft 429 kts 198°
2026-05-04 18:11 51.14695 20.54037 27670 ft 423 kts 198°
2026-05-04 18:12 51.11880 20.52780 26888 ft 417 kts 198°
2026-05-04 18:12 51.09101 20.51543 26121 ft 412 kts 198°
2026-05-04 18:12 51.06362 20.50320 25391 ft 406 kts 198°
2026-05-04 18:12 51.03663 20.49114 24735 ft 399 kts 198°
2026-05-04 18:13 51.01034 20.47943 24076 ft 394 kts 198°
2026-05-04 18:13 50.98408 20.46774 23413 ft 390 kts 198°
2026-05-04 18:13 50.93229 20.44482 21898 ft 381 kts 198°
2026-05-04 18:14 50.90680 20.43355 21166 ft 377 kts 198°
2026-05-04 18:14 50.88160 20.42242 20456 ft 372 kts 198°
2026-05-04 18:14 50.85710 20.41158 19767 ft 367 kts 198°
2026-05-04 18:15 50.80853 20.39011 18433 ft 357 kts 198°
2026-05-04 18:15 50.76144 20.36937 17114 ft 342 kts 198°
2026-05-04 18:15 50.73905 20.35954 16571 ft 333 kts 198°
2026-05-04 18:16 50.71698 20.34988 16033 ft 325 kts 198°
2026-05-04 18:16 50.69536 20.34046 15502 ft 318 kts 198°
2026-05-04 18:16 50.67424 20.33129 14984 ft 311 kts 198°
2026-05-04 18:17 50.63324 20.31327 13978 ft 300 kts 199°
2026-05-04 18:17 50.61323 20.30447 13444 ft 295 kts 199°
2026-05-04 18:17 50.57441 20.28757 12377 ft 287 kts 198°
2026-05-04 18:18 50.55534 20.27928 11948 ft 283 kts 198°
2026-05-04 18:18 50.53647 20.27105 11524 ft 280 kts 198°
2026-05-04 18:18 50.51777 20.26288 11103 ft 277 kts 198°
2026-05-04 18:18 50.49927 20.25480 10688 ft 274 kts 198°
2026-05-04 18:19 50.46299 20.23899 9872 ft 269 kts 198°
2026-05-04 18:19 50.44509 20.23122 9431 ft 264 kts 198°
2026-05-04 18:19 50.42751 20.22357 8990 ft 260 kts 198°
2026-05-04 18:20 50.41025 20.21607 8559 ft 256 kts 198°
2026-05-04 18:20 50.39322 20.20871 8130 ft 252 kts 198°
2026-05-04 18:20 50.37642 20.20148 7705 ft 249 kts 197°
2026-05-04 18:20 50.35967 20.19426 7297 ft 251 kts 197°
2026-05-04 18:21 50.34391 20.18735 6899 ft 254 kts 197°
2026-05-04 18:21 50.32672 20.17993 6492 ft 257 kts 197°
2026-05-04 18:21 50.30954 20.17257 6073 ft 260 kts 197°
2026-05-04 18:22 50.29188 20.16501 5624 ft 257 kts 197°
2026-05-04 18:22 50.27530 20.15793 5414 ft 243 kts 197°
2026-05-04 18:22 50.25948 20.15118 5233 ft 229 kts 197°
2026-05-04 18:22 50.24441 20.14471 5057 ft 221 kts 198°
2026-05-04 18:23 50.22967 20.13835 4889 ft 219 kts 198°
2026-05-04 18:23 50.21498 20.13203 4720 ft 219 kts 198°
2026-05-04 18:23 50.20044 20.12582 4538 ft 212 kts 198°
2026-05-04 18:23 50.18654 20.11989 4386 ft 207 kts 198°
2026-05-04 18:24 50.17266 20.11392 4211 ft 207 kts 198°
2026-05-04 18:24 50.15880 20.10795 4075 ft 206 kts 198°
2026-05-04 18:24 50.14509 20.10205 3999 ft 199 kts 198°
2026-05-04 18:24 50.13265 20.09475 4025 ft 185 kts 213°
2026-05-04 18:25 50.12296 20.08211 4015 ft 181 kts 231°
2026-05-04 18:25 50.11667 20.06531 4014 ft 180 kts 249°
2026-05-04 18:25 50.11369 20.04629 4003 ft 181 kts 257°
2026-05-04 18:25 50.11112 20.02737 3707 ft 180 kts 257°
2026-05-04 18:26 50.10853 20.00836 3446 ft 178 kts 256°
2026-05-04 18:26 50.10597 19.98960 3208 ft 176 kts 256°
2026-05-04 18:26 50.10340 19.97087 2973 ft 176 kts 257°
2026-05-04 18:26 50.10086 19.95236 2737 ft 172 kts 256°
2026-05-04 18:27 50.09840 19.93447 2502 ft 167 kts 256°
2026-05-04 18:27 50.09603 19.91721 2317 ft 164 kts 256°
2026-05-04 18:27 50.09369 19.90019 2092 ft 158 kts 256°
2026-05-04 18:27 50.09146 19.88404 1881 ft 148 kts 256°
2026-05-04 18:28 50.08933 19.86860 1691 ft 143 kts 258°
2026-05-04 18:28 50.08722 19.85339 1502 ft 144 kts 257°
2026-05-04 18:28 50.08513 19.83826 1311 ft 144 kts 258°
2026-05-04 18:28 50.08305 19.82304 1178 ft 144 kts 258°
2026-05-04 18:29 50.08154 19.81298 1022 ft 144 kts 258°
2026-05-04 18:29 50.07950 19.79773 815 ft 142 kts 258°
2026-05-04 18:29 50.07716 19.78086 799 ft 93 kts 257°
2026-05-04 18:29 50.07615 19.77364 800 ft 44 kts 258°
2026-05-04 18:30 50.07478 19.76858 801 ft 20 kts 179°
2026-05-04 18:30 50.07358 19.76894 800 ft 13 kts 164°
2026-05-04 18:30 50.07316 19.76994 800 ft 13 kts 92°
2026-05-04 18:31 50.07331 19.77133 800 ft 14 kts 78°
2026-05-04 18:31 50.07338 19.77179 800 ft 0 kts 77°
2026-05-04 18:31 50.07340 19.77192 800 ft 2 kts 77°
2026-05-04 18:31 50.07344 19.77222 800 ft 4 kts 77°
2026-05-04 18:32 50.07351 19.77268 800 ft 5 kts 76°
2026-05-04 18:32 50.07360 19.77331 800 ft 7 kts 78°
2026-05-04 18:32 50.07376 19.77454 800 ft 14 kts 78°
2026-05-04 18:32 50.07401 19.77644 800 ft 16 kts 79°
2026-05-04 18:33 50.07427 19.77820 800 ft 17 kts 77°
2026-05-04 18:33 50.07454 19.78006 800 ft 18 kts 78°
2026-05-04 18:33 50.07479 19.78205 800 ft 19 kts 78°
2026-05-04 18:33 50.07509 19.78411 800 ft 20 kts 77°
2026-05-04 18:34 50.07538 19.78619 800 ft 20 kts 77°
2026-05-04 18:34 50.07567 19.78824 800 ft 19 kts 77°
2026-05-04 18:34 50.07596 19.79027 800 ft 19 kts 78°
2026-05-04 18:34 50.07624 19.79234 800 ft 20 kts 78°
2026-05-04 18:35 50.07654 19.79449 800 ft 21 kts 78°
2026-05-04 18:35 50.07679 19.79627 800 ft 9 kts 81°
2026-05-04 18:35 50.07645 19.79697 800 ft 9 kts 159°
2026-05-04 18:35 50.07576 19.79725 800 ft 11 kts 166°
2026-05-04 18:36 50.07498 19.79750 800 ft 11 kts 169°
2026-05-04 18:36 50.07415 19.79775 800 ft 13 kts 169°
2026-05-04 18:36 50.07350 19.79728 800 ft 9 kts 218°
2026-05-04 18:36 50.07307 19.79729 800 ft 4 kts 166°
2026-05-04 18:37 50.07288 19.79737 800 ft 0 kts 167°